Regional Weather Roundup
Issued by NWS Columbia, SC

Home | Current Version | Previous Version | Text Only | Print | Product List | Glossary On
Versions: 1 2 3 4 5 6 7 8 9 10 11 12 13 14 15 16 17 18 19 20 21 22 23 24 25 26 27 28 29 30 31 32 33 34 35 36 37 38 39 40 41 42 43 44 45 46 47 48 49 50
000
ASUS42 KCAE 190810
RWRCAE
REGIONAL WEATHER ROUNDUP
NATIONAL WEATHER SERVICE COLUMBIA SC
300 AM EST FRI DEC 19 2014

NOTE: "FAIR" INDICATES FEW OR NO CLOUDS BELOW 12,000 FEET WITH NO
SIGNIFICANT WEATHER AND/OR OBSTRUCTIONS TO VISIBILITY.

NOT ALL STATIONS ARE QUALITY CONTROLLED BY THE NATIONAL
WEATHER SERVICE. USE DATA WITH CAUTION...ESPECIALLY
DEWPOINT OBSERVATIONS.

SCZ001>056-GAZ040-063>065-077-190900-
...UPSTATE SOUTH CAROLINA...

CITY           SKY/WX    TMP DP  RH WIND       PRES   REMARKS
ANDERSON       CLEAR     39  36  89 CALM      30.08F
LIBERTY        FAIR      33  23  66 MISG      30.08R
SPARTANBURG    FAIR      41  30  65 N6        30.09R
CLEMSON        CLEAR     44  35  70 CALM      30.09S
GREENVILLE     CLEAR     43  28  55 N8        30.09R
GREENWOOD      CLEAR     39  36  89 NW3       30.10R
GREER          CLEAR     39  29  67 CALM      30.08R
ROCK HILL      CLEAR     33  33 100 CALM      30.09R
CHESTER        FAIR      41  36  81 CALM      30.09S
LAURENS        FAIR      36  36 100 N6        30.08S WCI  31


...CENTRAL SOUTH CAROLINA...

CITY           SKY/WX    TMP DP  RH WIND       PRES   REMARKS
COLUMBIA APT   MOCLDY    37  34  89 S3        30.08F
COLUMBIA OWENS MOCLDY    40  36  86 CALM      30.10S
DARLINGTON     MOCLDY    36  32  87 CALM      30.11S
FLORENCE       MOCLDY    38  34  85 CALM      30.09S
MCENTIRE ANGB  MOCLDY    36  35  94 NW2       30.09S
ORANGEBURG     MOCLDY    40  38  93 CALM      30.08F
SUMTER SHAW    MOCLDY    38  35  89 E2        30.07S
NEWBERRY       FAIR      36 N/A N/A CALM      30.11S
AIKEN          FAIR      39  37  93 W5        30.11S
BARNWELL         N/A     39  37  93 CALM      30.11R
CAMDEN         FAIR      36  32  87 CALM      30.10S
LANCASTER      RAIN      34  34 100 NE3       30.09S
WINNSBORO      FAIR      43  36  75 S3        30.07S


...EASTERN AND COASTAL SOUTH CAROLINA...

CITY           SKY/WX    TMP DP  RH WIND       PRES   REMARKS
MYRTLE BEACH   MOCLDY    39  36  87 CALM      30.10S
N MYRTLE BCH   PTCLDY    37  35  92 CALM      30.09S
CONWAY         FAIR      34  34 100 CALM      30.10S
MARION         FAIR      36  34  93 CALM      30.10S
HARTSVILLE     FAIR      41  30  65 CALM      30.09F
FLORENCE       MOCLDY    38  34  85 CALM      30.09S
DARLINGTON     MOCLDY    36  32  87 CALM      30.11S
CHARLESTON APT MOCLDY    45  43  93 CALM      30.09F
MOUNT PLEASANT PTSUNNY   43  43 100 CALM      30.10S
WALTERBORO     CLOUDY    43 N/A N/A CALM      30.09F
BEAUFORT       CLOUDY    48  42  80 SW3       30.10F


...EASTERN GEORGIA...

CITY           SKY/WX    TMP DP  RH WIND       PRES   REMARKS
AUGUSTA BUSH F CLOUDY    36  36 100 CALM      30.10S
AUGUSTA DANIEL CLOUDY    49  36  61 W7        30.10R
THOMSON        MOCLDY    44  40  86 CALM      30.14S
WASHINGTON     FAIR      45  39  81 W6        30.09S
CLAXTON        FAIR      41  41 100 CALM      30.11S
SYLVANIA       PTSUNNY   42  42  99 CALM      30.11S
STATESBORO     MOCLDY    42  42 100 CALM      30.10S
SAVANNAH       MOCLDY    46  40  79 CALM      30.11S


...SOUTHERN NORTH CAROLINA...

CITY           SKY/WX    TMP DP  RH WIND       PRES   REMARKS
CHARLOTTE      PTCLDY    38  25  59 N5        30.10R WCI  34
MONROE         CLEAR     38  30  73 NE6       30.08S WCI  33
WADESBORO      CLOUDY    35  33  92 CALM      30.11R
ROCKINGHAM     CLOUDY    37  34  90 CALM      30.10R
RUTHERFORDTON  CLEAR     39  27  61 CALM      30.10R
ASHEVILLE      CLEAR     36  26  67 NW15      30.10S WCI  27

$$



USA.gov is the U.S. government's official web portal to all federal, state and local government web resources and services.